Вернуться в каталог

COSMOS 1275 DEB

АктивенPO
NORAD 42213·DEBRIS·🇷🇺 Russia

Запущен Jun 4, 1981 с Plesetsk Cosmodrome

Loading…

Ближайшие Пролёты (ближайшие 24 часа)

TLE

УстаревающийSource: Space-Track

Эпоха: Sep 10, 2026, 00:28 UTC

1 42213U 81053UD  26253.01970207  .00002572  00000-0  11019-2 0  9993
2 42213  82.8193   4.6491 0043130 224.9169 134.8522 14.24053645216180

Отслеживайте COSMOS 1275 DEB в реальном времени с AllMySat

Download on the App Store